| time (UTC) | temp F | wind direction | speed MPH | gust MPH | rain 1hr in | rain 24hr in | rain mn in | humidity % | barometer mb |
| 20260902114029 | 73 | 136 | 0.0 | 0.0 | 0.00 | 0.00 | 0.00 | 83 | 1017.5 |
| 20260902113527 | 73 | 136 | 0.0 | 0.0 | 0.00 | 0.00 | 0.00 | 83 | 1017.3 |
| 20260902112957 | 73 | 136 | 0.0 | 0.0 | 0.00 | 0.00 | 0.00 | 82 | 1017.3 |
| 20260902112454 | 74 | 136 | 0.0 | 0.0 | 0.00 | 0.00 | 0.00 | 82 | 1017.1 |
| 20260902111953 | 74 | 136 | 0.0 | 0.0 | 0.00 | 0.00 | 0.00 | 82 | 1017.3 |
| 20260902111433 | 74 | 136 | 0.0 | 0.0 | 0.00 | 0.00 | 0.00 | 82 | 1017.3 |
| 20260902111353 | 74 | 136 | 0.0 | 0.0 | 0.00 | 0.00 | 0.00 | 82 | 1017.0 |
| 20260902110859 | 74 | 136 | 0.0 | 0.0 | 0.00 | 0.00 | 0.00 | 82 | 1017.1 |
| 20260902110351 | 74 | 136 | 0.0 | 0.0 | 0.00 | 0.00 | 0.00 | 81 | 1017.0 |
| 20260902105405 | 74 | 136 | 0.0 | 0.0 | 0.00 | 0.00 | 0.00 | 81 | 1017.0 |
| 20260902104841 | 75 | 136 | 0.0 | 0.0 | 0.00 | 0.00 | 0.00 | 81 | 1016.8 |
| 20260902104328 | 75 | 136 | 0.0 | 0.0 | 0.00 | 0.00 | 0.00 | 80 | 1016.9 |
| 20260902103826 | 75 | 136 | 0.0 | 0.0 | 0.00 | 0.00 | 0.00 | 80 | 1016.9 |
| 20260902103306 | 75 | 136 | 0.0 | 0.0 | 0.00 | 0.00 | 0.00 | 80 | 1016.8 |
| 20260902102804 | 75 | 136 | 0.0 | 0.0 | 0.00 | 0.00 | 0.00 | 80 | 1016.8 |
| 20260902102307 | 76 | 136 | 0.0 | 0.0 | 0.00 | 0.00 | 0.00 | 80 | 1016.9 |
| 20260902101803 | 76 | 136 | 0.0 | 0.0 | 0.00 | 0.00 | 0.00 | 79 | 1016.8 |
| 20260902101724 | 76 | 136 | 0.0 | 0.0 | 0.00 | 0.00 | 0.00 | 79 | 1016.7 |
| 20260902100711 | 76 | 136 | 0.0 | 0.0 | 0.00 | 0.00 | 0.00 | 79 | 1016.8 |
| 20260902100633 | 76 | 136 | 0.0 | 0.0 | 0.00 | 0.00 | 0.00 | 79 | 1016.7 |
| 20260902095614 | 76 | 136 | 0.0 | 0.0 | 0.00 | 0.00 | 0.00 | 79 | 1016.9 |
| 20260902095111 | 76 | 136 | 0.0 | 0.0 | 0.00 | 0.00 | 0.00 | 79 | 1016.8 |
| 20260902095036 | 76 | 136 | 0.0 | 1.0 | 0.00 | 0.00 | 0.00 | 79 | 1016.8 |
| 20260902094018 | 76 | 136 | 0.0 | 1.0 | 0.00 | 0.00 | 0.00 | 78 | 1016.8 |
| 20260902093453 | 76 | 136 | 0.0 | 1.0 | 0.00 | 0.00 | 0.00 | 78 | 1016.8 |
| 20260902092949 | 76 | 136 | 0.0 | 1.0 | 0.00 | 0.00 | 0.00 | 78 | 1016.7 |
| 20260902092445 | 76 | 136 | 0.0 | 0.0 | 0.00 | 0.00 | 0.00 | 78 | 1016.8 |
| 20260902091942 | 76 | 136 | 0.0 | 0.0 | 0.00 | 0.00 | 0.00 | 78 | 1016.7 |
| 20260902091441 | 76 | 136 | 0.0 | 0.0 | 0.00 | 0.00 | 0.00 | 78 | 1016.7 |
| 20260902090915 | 76 | 136 | 0.0 | 0.0 | 0.00 | 0.00 | 0.00 | 77 | 1016.8 |
| 20260902090837 | 77 | 136 | 0.0 | 0.0 | 0.00 | 0.00 | 0.00 | 77 | 1016.7 |
| 20260902090322 | 77 | 136 | 0.0 | 0.0 | 0.00 | 0.00 | 0.00 | 78 | 1016.7 |
| 20260902085344 | 77 | 136 | 0.0 | 0.0 | 0.00 | 0.00 | 0.00 | 77 | 1016.7 |
| 20260902084814 | 77 | 136 | 0.0 | 0.0 | 0.00 | 0.00 | 0.00 | 77 | 1016.7 |
| 20260902084312 | 77 | 136 | 0.0 | 1.0 | 0.00 | 0.00 | 0.00 | 77 | 1016.7 |
| 20260902083744 | 77 | 136 | 0.0 | 1.0 | 0.00 | 0.00 | 0.00 | 77 | 1016.7 |
| 20260902083242 | 77 | 146 | 0.0 | 0.0 | 0.00 | 0.00 | 0.00 | 77 | 1016.6 |
| 20260902082715 | 77 | 146 | 0.0 | 0.0 | 0.00 | 0.00 | 0.00 | 77 | 1016.7 |
| 20260902082148 | 77 | 146 | 0.0 | 0.0 | 0.00 | 0.00 | 0.00 | 77 | 1016.6 |
| 20260902082137 | 77 | 146 | 0.0 | 0.0 | 0.00 | 0.00 | 0.00 | 76 | 1016.8 |
| 20260902081143 | 78 | 145 | 0.0 | 0.0 | 0.00 | 0.00 | 0.00 | 76 | 1016.7 |
| 20260902080621 | 78 | 146 | 0.0 | 0.0 | 0.00 | 0.00 | 0.00 | 75 | 1016.7 |
| 20260902080118 | 78 | 146 | 0.0 | 0.0 | 0.00 | 0.00 | 0.00 | 75 | 1016.8 |
| 20260902075619 | 78 | 145 | 0.0 | 0.0 | 0.00 | 0.00 | 0.00 | 75 | 1016.6 |
| 20260902075115 | 78 | 145 | 0.0 | 0.0 | 0.00 | 0.00 | 0.00 | 75 | 1016.8 |
| 20260902074616 | 78 | 146 | 0.0 | 1.0 | 0.00 | 0.00 | 0.00 | 75 | 1016.7 |
| 20260902074114 | 78 | 145 | 0.0 | 1.0 | 0.00 | 0.00 | 0.00 | 74 | 1016.7 |
| 20260902074104 | 78 | 145 | 0.0 | 1.0 | 0.00 | 0.00 | 0.00 | 74 | 1016.7 |
| 20260902073048 | 78 | 145 | 0.0 | 1.0 | 0.00 | 0.00 | 0.00 | 74 | 1016.7 |
| 20260902072545 | 78 | 148 | 0.0 | 0.0 | 0.00 | 0.00 | 0.00 | 74 | 1016.8 |
| 20260902072503 | 78 | 148 | 0.0 | 0.0 | 0.00 | 0.00 | 0.00 | 74 | 1016.8 |
| 20260902071450 | 78 | 148 | 0.0 | 0.0 | 0.00 | 0.00 | 0.00 | 74 | 1016.8 |
| 20260902070943 | 78 | 148 | 0.0 | 0.0 | 0.00 | 0.00 | 0.00 | 74 | 1016.7 |
| 20260902070416 | 78 | 148 | 0.0 | 0.0 | 0.00 | 0.00 | 0.00 | 74 | 1016.8 |
| 20260902065851 | 78 | 148 | 0.0 | 0.0 | 0.00 | 0.00 | 0.00 | 74 | 1016.8 |
| 20260902065811 | 78 | 148 | 0.0 | 0.0 | 0.00 | 0.00 | 0.00 | 73 | 1016.9 |
| 20260902064807 | 79 | 148 | 0.0 | 0.0 | 0.00 | 0.00 | 0.00 | 73 | 1016.8 |
| 20260902064304 | 79 | 148 | 0.0 | 0.0 | 0.00 | 0.00 | 0.00 | 73 | 1016.8 |
| 20260902063804 | 79 | 148 | 0.0 | 0.0 | 0.00 | 0.00 | 0.00 | 73 | 1016.8 |
| 20260902063717 | 79 | 148 | 0.0 | 0.0 | 0.00 | 0.00 | 0.00 | 73 | 1016.7 |
| 20260902063157 | 79 | 148 | 0.0 | 0.0 | 0.00 | 0.00 | 0.00 | 73 | 1016.7 |
| 20260902062211 | 79 | 148 | 0.0 | 0.0 | 0.00 | 0.00 | 0.00 | 72 | 1016.7 |
| 20260902061929 | 79 | 148 | 0.0 | 0.0 | 0.00 | 0.00 | 0.00 | 72 | 1016.8 |
| 20260902061653 | 79 | 148 | 0.0 | 0.0 | 0.00 | 0.00 | 0.00 | 72 | 1016.8 |
| 20260902060650 | 79 | 148 | 0.0 | 0.0 | 0.00 | 0.00 | 0.00 | 71 | 1016.8 |
| 20260902060140 | 80 | 148 | 0.0 | 0.0 | 0.00 | 0.00 | 0.00 | 70 | 1016.8 |
| 20260902055640 | 80 | 150 | 0.0 | 0.0 | 0.00 | 0.00 | 0.00 | 70 | 1016.8 |
| 20260902055111 | 80 | 151 | 0.0 | 0.0 | 0.00 | 0.00 | 0.00 | 70 | 1016.7 |
| 20260902054608 | 80 | 150 | 0.0 | 0.0 | 0.00 | 0.00 | 0.00 | 70 | 1016.8 |
| 20260902054104 | 80 | 150 | 0.0 | 0.0 | 0.00 | 0.00 | 0.00 | 69 | 1016.8 |
| 20260902053601 | 81 | 150 | 0.0 | 0.0 | 0.00 | 0.00 | 0.00 | 68 | 1016.7 |
| 20260902053053 | 81 | 150 | 0.0 | 1.0 | 0.00 | 0.00 | 0.00 | 68 | 1016.7 |
| 20260902052526 | 81 | 150 | 0.0 | 1.0 | 0.00 | 0.00 | 0.00 | 67 | 1016.7 |
| 20260902052013 | 82 | 151 | 0.0 | 1.0 | 0.00 | 0.00 | 0.00 | 67 | 1016.7 |
| 20260902051517 | 82 | 150 | 0.0 | 1.0 | 0.00 | 0.00 | 0.00 | 67 | 1016.7 |
| 20260902050948 | 82 | 146 | 0.0 | 1.0 | 0.00 | 0.00 | 0.00 | 67 | 1016.6 |
| 20260902050933 | 82 | 155 | 0.0 | 1.0 | 0.00 | 0.00 | 0.00 | 67 | 1016.6 |
| 20260902045915 | 82 | 136 | 0.0 | 1.0 | 0.00 | 0.00 | 0.00 | 66 | 1016.6 |
| 20260902045413 | 82 | 136 | 0.0 | 1.0 | 0.00 | 0.00 | 0.00 | 66 | 1016.5 |
| 20260902044914 | 82 | 136 | 0.0 | 1.0 | 0.00 | 0.00 | 0.00 | 66 | 1016.6 |
| 20260902044345 | 82 | 136 | 0.0 | 1.0 | 0.00 | 0.00 | 0.00 | 66 | 1016.6 |
| 20260902043839 | 82 | 144 | 0.0 | 1.0 | 0.00 | 0.00 | 0.00 | 66 | 1016.4 |
| 20260902043756 | 82 | 144 | 0.0 | 1.0 | 0.00 | 0.00 | 0.00 | 65 | 1016.5 |
| 20260902042746 | 83 | 144 | 0.0 | 1.0 | 0.00 | 0.00 | 0.00 | 65 | 1016.4 |
| 20260902042219 | 83 | 137 | 0.0 | 1.0 | 0.00 | 0.00 | 0.00 | 65 | 1016.4 |
| 20260902041650 | 83 | 135 | 0.0 | 1.0 | 0.00 | 0.00 | 0.00 | 64 | 1016.4 |
| 20260902041621 | 83 | 134 | 0.0 | 1.0 | 0.00 | 0.00 | 0.00 | 64 | 1016.4 |
| 20260902040629 | 83 | 134 | 0.0 | 1.0 | 0.00 | 0.00 | 0.00 | 63 | 1016.3 |
| 20260902040609 | 84 | 134 | 0.0 | 1.0 | 0.00 | 0.00 | 0.00 | 63 | 1016.3 |
| 20260902035625 | 84 | 140 | 0.0 | 1.0 | 0.00 | 0.00 | 0.00 | 62 | 1016.3 |
| 20260902035059 | 84 | 136 | 0.0 | 1.0 | 0.00 | 0.00 | 0.00 | 62 | 1016.3 |
| 20260902034541 | 84 | 129 | 0.0 | 1.0 | 0.00 | 0.00 | 0.00 | 61 | 1016.2 |
| 20260902034010 | 85 | 129 | 0.0 | 2.0 | 0.00 | 0.00 | 0.00 | 61 | 1016.2 |
| 20260902033952 | 85 | 134 | 0.0 | 3.0 | 0.00 | 0.00 | 0.00 | 61 | 1016.2 |
| 20260902032943 | 85 | 127 | 0.0 | 2.0 | 0.00 | 0.00 | 0.00 | 61 | 1016.1 |
| 20260902032415 | 85 | 138 | 0.0 | 2.0 | 0.00 | 0.00 | 0.00 | 60 | 1016.1 |
| 20260902031911 | 85 | 123 | 0.0 | 2.0 | 0.00 | 0.00 | 0.00 | 61 | 1016.0 |
| 20260902031857 | 85 | 140 | 0.0 | 3.0 | 0.00 | 0.00 | 0.00 | 60 | 1016.0 |
| 20260902030844 | 85 | 133 | 0.0 | 3.0 | 0.00 | 0.00 | 0.00 | 60 | 1015.9 |
| 20260902030317 | 85 | 133 | 0.0 | 2.0 | 0.00 | 0.00 | 0.00 | 60 | 1015.9 |
| 20260902030235 | 85 | 127 | 0.0 | 1.0 | 0.00 | 0.00 | 0.00 | 60 | 1015.9 |
| 20260902025224 | 85 | 132 | 0.0 | 1.0 | 0.00 | 0.00 | 0.00 | 59 | 1015.7 |
| 20260902024656 | 85 | 132 | 0.0 | 2.0 | 0.00 | 0.00 | 0.00 | 58 | 1015.7 |
| 20260902024128 | 85 | 131 | 0.0 | 2.0 | 0.00 | 0.00 | 0.00 | 58 | 1015.6 |
| 20260902023603 | 85 | 118 | 0.0 | 2.0 | 0.00 | 0.00 | 0.00 | 58 | 1015.5 |
| 20260902023035 | 85 | 137 | 0.0 | 2.0 | 0.00 | 0.00 | 0.00 | 57 | 1015.5 |
| 20260902022531 | 85 | 139 | 0.0 | 2.0 | 0.00 | 0.00 | 0.00 | 57 | 1015.5 |
| 20260902022014 | 85 | 62 | 0.0 | 1.0 | 0.00 | 0.00 | 0.00 | 57 | 1015.3 |
| 20260902021447 | 85 | 138 | 0.0 | 1.0 | 0.00 | 0.00 | 0.00 | 57 | 1015.4 |
| 20260902020948 | 85 | 276 | 0.0 | 2.0 | 0.00 | 0.00 | 0.00 | 56 | 1015.2 |
| 20260902020427 | 85 | 278 | 0.0 | 2.0 | 0.00 | 0.00 | 0.00 | 56 | 1015.1 |
| 20260902015930 | 84 | 263 | 0.0 | 1.0 | 0.00 | 0.00 | 0.00 | 57 | 1015.0 |
| 20260902015403 | 84 | 137 | 0.0 | 1.0 | 0.00 | 0.00 | 0.00 | 57 | 1015.1 |
| 20260902015353 | 84 | 139 | 0.0 | 0.0 | 0.00 | 0.00 | 0.00 | 56 | 1014.9 |
| 20260902014832 | 85 | 139 | 0.0 | 0.0 | 0.00 | 0.00 | 0.00 | 55 | 1015.0 |
| 20260902013843 | 85 | 139 | 0.0 | 0.0 | 0.00 | 0.00 | 0.00 | 55 | 1015.0 |
| 20260902013342 | 85 | 139 | 0.0 | 0.0 | 0.00 | 0.00 | 0.00 | 54 | 1014.9 |
| 20260902012845 | 86 | 139 | 0.0 | 0.0 | 0.00 | 0.00 | 0.00 | 54 | 1014.8 |
| 20260902012343 | 86 | 139 | 0.0 | 0.0 | 0.00 | 0.00 | 0.00 | 52 | 1014.7 |
| 20260902011839 | 87 | 139 | 0.0 | 0.0 | 0.00 | 0.00 | 0.00 | 51 | 1014.8 |
| 20260902011757 | 88 | 139 | 0.0 | 0.0 | 0.00 | 0.00 | 0.00 | 51 | 1014.7 |
| 20260902010808 | 88 | 139 | 0.0 | 0.0 | 0.00 | 0.00 | 0.00 | 50 | 1014.7 |
| 20260902010308 | 89 | 139 | 0.0 | 0.0 | 0.00 | 0.00 | 0.00 | 50 | 1014.7 |
| 20260902005802 | 90 | 139 | 0.0 | 0.0 | 0.00 | 0.00 | 0.00 | 47 | 1014.8 |
| 20260902005730 | 91 | 139 | 0.0 | 0.0 | 0.00 | 0.00 | 0.00 | 46 | 1014.8 |
| 20260902004735 | 92 | 139 | 0.0 | 1.0 | 0.00 | 0.00 | 0.00 | 46 | 1014.8 |
| 20260902004232 | 93 | 139 | 0.0 | 1.0 | 0.00 | 0.00 | 0.00 | 45 | 1014.7 |
| 20260902003735 | 94 | 139 | 0.0 | 1.0 | 0.00 | 0.00 | 0.00 | 43 | 1014.8 |
| 20260902003157 | 95 | 141 | 0.0 | 1.0 | 0.00 | 0.00 | 0.00 | 41 | 1014.9 |
| 20260902003136 | 96 | 120 | 0.0 | 1.0 | 0.00 | 0.00 | 0.00 | 40 | 1014.8 |
| 20260902002130 | 97 | 120 | 0.0 | 2.0 | 0.00 | 0.00 | 0.00 | 40 | 1014.9 |
| 20260902001612 | 97 | 120 | 0.0 | 2.0 | 0.00 | 0.00 | 0.00 | 40 | 1014.9 |
| 20260902001114 | 98 | 127 | 0.0 | 2.0 | 0.00 | 0.00 | 0.00 | 39 | 1014.9 |
| 20260902000545 | 98 | 127 | 0.0 | 2.0 | 0.00 | 0.00 | 0.00 | 39 | 1014.9 |
| 20260902000040 | 98 | 137 | 0.0 | 3.0 | 0.00 | 0.00 | 0.00 | 39 | 1014.9 |
| 20260901235516 | 98 | 131 | 0.0 | 3.0 | 0.00 | 0.00 | 0.00 | 38 | 1014.9 |
| 20260901235012 | 97 | 115 | 0.0 | 3.0 | 0.00 | 0.00 | 0.00 | 38 | 1014.9 |
| 20260901234956 | 97 | 17 | 0.0 | 3.0 | 0.00 | 0.00 | 0.00 | 39 | 1014.9 |
| 20260901234004 | 97 | 88 | 1.0 | 4.0 | 0.00 | 0.00 | 0.00 | 39 | 1015.0 |
| 20260901233501 | 97 | 97 | 2.0 | 4.0 | 0.00 | 0.00 | 0.00 | 39 | 1015.0 |
| 20260901232943 | 97 | 96 | 1.0 | 4.0 | 0.00 | 0.00 | 0.00 | 38 | 1015.1 |
| 20260901232440 | 97 | 84 | 1.0 | 3.0 | 0.00 | 0.00 | 0.00 | 39 | 1015.0 |
| 20260901231942 | 96 | 341 | 2.0 | 4.0 | 0.00 | 0.00 | 0.00 | 41 | 1015.1 |
| 20260901231415 | 96 | 59 | 2.0 | 6.0 | 0.00 | 0.00 | 0.00 | 41 | 1015.1 |
| 20260901230913 | 96 | 92 | 1.0 | 6.0 | 0.00 | 0.00 | 0.00 | 41 | 1015.1 |
| 20260901230349 | 96 | 65 | 1.0 | 4.0 | 0.00 | 0.00 | 0.00 | 42 | 1015.2 |
| 20260901225845 | 96 | 85 | 1.0 | 4.0 | 0.00 | 0.00 | 0.00 | 42 | 1015.2 |
| 20260901225321 | 96 | 97 | 1.0 | 4.0 | 0.00 | 0.00 | 0.00 | 41 | 1015.2 |
| 20260901224753 | 96 | 37 | 2.0 | 5.0 | 0.00 | 0.00 | 0.00 | 41 | 1015.2 |
| 20260901224249 | 97 | 44 | 1.0 | 5.0 | 0.00 | 0.00 | 0.00 | 41 | 1015.2 |
| 20260901223722 | 97 | 59 | 1.0 | 4.0 | 0.00 | 0.00 | 0.00 | 41 | 1015.2 |
| 20260901223152 | 98 | 122 | 1.0 | 4.0 | 0.00 | 0.00 | 0.00 | 40 | 1015.2 |
| 20260901222627 | 98 | 40 | 1.0 | 5.0 | 0.00 | 0.00 | 0.00 | 41 | 1015.2 |
| 20260901222107 | 98 | 127 | 1.0 | 5.0 | 0.00 | 0.00 | 0.00 | 39 | 1015.1 |
| 20260901221531 | 98 | 14 | 0.0 | 4.0 | 0.00 | 0.00 | 0.00 | 40 | 1015.2 |
| 20260901221004 | 98 | 82 | 0.0 | 3.0 | 0.00 | 0.00 | 0.00 | 39 | 1015.2 |
| 20260901220443 | 97 | 196 | 0.0 | 3.0 | 0.00 | 0.00 | 0.00 | 41 | 1015.2 |
| 20260901215914 | 97 | 132 | 0.0 | 2.0 | 0.00 | 0.00 | 0.00 | 41 | 1015.2 |
| 20260901215413 | 98 | 244 | 0.0 | 2.0 | 0.00 | 0.00 | 0.00 | 40 | 1015.2 |
| 20260901214845 | 98 | 136 | 0.0 | 3.0 | 0.00 | 0.00 | 0.00 | 39 | 1015.1 |
| 20260901214340 | 99 | 145 | 1.0 | 4.0 | 0.00 | 0.00 | 0.00 | 38 | 1015.2 |
| 20260901213816 | 100 | 157 | 0.0 | 4.0 | 0.00 | 0.00 | 0.00 | 38 | 1015.2 |
| 20260901213251 | 100 | 150 | 1.0 | 6.0 | 0.00 | 0.00 | 0.00 | 38 | 1015.2 |
| 20260901212723 | 100 | 120 | 1.0 | 6.0 | 0.00 | 0.00 | 0.00 | 39 | 1015.3 |
| 20260901212629 | 101 | 129 | 0.0 | 3.0 | 0.00 | 0.00 | 0.00 | 38 | 1015.3 |
| 20260901211651 | 101 | 139 | 1.0 | 3.0 | 0.00 | 0.00 | 0.00 | 38 | 1015.2 |
| 20260901211124 | 101 | 201 | 1.0 | 4.0 | 0.00 | 0.00 | 0.00 | 39 | 1015.3 |
| 20260901210622 | 101 | 35 | 2.0 | 4.0 | 0.00 | 0.00 | 0.00 | 39 | 1015.4 |
| 20260901210121 | 101 | 139 | 1.0 | 6.0 | 0.00 | 0.00 | 0.00 | 39 | 1015.4 |
| 20260901205601 | 101 | 217 | 1.0 | 6.0 | 0.00 | 0.00 | 0.00 | 40 | 1015.5 |
| 20260901205023 | 100 | 139 | 1.0 | 6.0 | 0.00 | 0.00 | 0.00 | 40 | 1015.5 |
| 20260901205006 | 100 | 145 | 2.0 | 6.0 | 0.00 | 0.00 | 0.00 | 41 | 1015.7 |
| 20260901204008 | 99 | 97 | 3.0 | 6.0 | 0.00 | 0.00 | 0.00 | 40 | 1015.8 |
| 20260901203956 | 100 | 25 | 2.0 | 6.0 | 0.00 | 0.00 | 0.00 | 39 | 1015.9 |
| 20260901203445 | 101 | 106 | 1.0 | 4.0 | 0.00 | 0.00 | 0.00 | 40 | 1015.9 |
| 20260901202459 | 101 | 85 | 0.0 | 4.0 | 0.00 | 0.00 | 0.00 | 40 | 1016.0 |
| 20260901201957 | 101 | 142 | 0.0 | 4.0 | 0.00 | 0.00 | 0.00 | 39 | 1016.1 |
| 20260901201431 | 101 | 148 | 1.0 | 6.0 | 0.00 | 0.00 | 0.00 | 39 | 1016.2 |
| 20260901200928 | 101 | 269 | 2.0 | 6.0 | 0.00 | 0.00 | 0.00 | 38 | 1016.2 |
| 20260901200428 | 101 | 130 | 1.0 | 4.0 | 0.00 | 0.00 | 0.00 | 40 | 1016.3 |
| 20260901195928 | 101 | 127 | 1.0 | 4.0 | 0.00 | 0.00 | 0.00 | 39 | 1016.3 |
| 20260901195431 | 101 | 202 | 1.0 | 3.0 | 0.00 | 0.00 | 0.00 | 40 | 1016.3 |
| 20260901194925 | 100 | 181 | 1.0 | 4.0 | 0.00 | 0.00 | 0.00 | 40 | 1016.4 |
| 20260901194423 | 100 | 193 | 1.0 | 4.0 | 0.00 | 0.00 | 0.00 | 40 | 1016.3 |
| 20260901193904 | 99 | 69 | 2.0 | 4.0 | 0.00 | 0.00 | 0.00 | 43 | 1016.3 |
| 20260901193841 | 99 | 111 | 3.0 | 6.0 | 0.00 | 0.00 | 0.00 | 42 | 1016.4 |
| 20260901192904 | 100 | 65 | 2.0 | 6.0 | 0.00 | 0.00 | 0.00 | 40 | 1016.5 |
| 20260901192407 | 101 | 242 | 1.0 | 3.0 | 0.00 | 0.00 | 0.00 | 40 | 1016.7 |
| 20260901191841 | 101 | 317 | 1.0 | 5.0 | 0.00 | 0.00 | 0.00 | 40 | 1016.7 |
| 20260901191310 | 102 | 15 | 2.0 | 5.0 | 0.00 | 0.00 | 0.00 | 39 | 1016.8 |
| 20260901190741 | 103 | 76 | 1.0 | 5.0 | 0.00 | 0.00 | 0.00 | 40 | 1016.7 |
| 20260901190216 | 102 | 140 | 1.0 | 4.0 | 0.00 | 0.00 | 0.00 | 40 | 1016.8 |
| 20260901185714 | 101 | 144 | 1.0 | 7.0 | 0.00 | 0.00 | 0.00 | 41 | 1016.9 |
| 20260901185212 | 100 | 113 | 2.0 | 7.0 | 0.00 | 0.00 | 0.00 | 46 | 1016.9 |
| 20260901184646 | 98 | 267 | 3.0 | 9.0 | 0.00 | 0.00 | 0.00 | 44 | 1017.0 |
| 20260901184138 | 98 | 246 | 4.0 | 9.0 | 0.00 | 0.00 | 0.00 | 43 | 1017.1 |
| 20260901183640 | 98 | 260 | 2.0 | 9.0 | 0.00 | 0.00 | 0.00 | 44 | 1017.1 |
| 20260901183137 | 98 | 248 | 2.0 | 9.0 | 0.00 | 0.00 | 0.00 | 45 | 1017.1 |
| 20260901182641 | 97 | 262 | 2.0 | 5.0 | 0.00 | 0.00 | 0.00 | 45 | 1017.3 |
| 20260901182545 | 97 | 247 | 1.0 | 5.0 | 0.00 | 0.00 | 0.00 | 44 | 1017.5 |
| 20260901181609 | 98 | 273 | 1.0 | 7.0 | 0.00 | 0.00 | 0.00 | 44 | 1017.6 |
| 20260901181043 | 98 | 243 | 1.0 | 7.0 | 0.00 | 0.00 | 0.00 | 43 | 1017.7 |
| 20260901180537 | 98 | 114 | 0.0 | 2.0 | 0.00 | 0.00 | 0.00 | 44 | 1017.8 |
| 20260901180034 | 98 | 205 | 1.0 | 8.0 | 0.00 | 0.00 | 0.00 | 45 | 1017.9 |
| 20260901180020 | 99 | 139 | 1.0 | 8.0 | 0.00 | 0.00 | 0.00 | 44 | 1018.0 |
| 20260901175034 | 99 | 191 | 2.0 | 6.0 | 0.00 | 0.00 | 0.00 | 44 | 1018.0 |
| 20260901174533 | 100 | 257 | 1.0 | 5.0 | 0.00 | 0.00 | 0.00 | 41 | 1018.1 |
| 20260901174007 | 99 | 255 | 1.0 | 5.0 | 0.00 | 0.00 | 0.00 | 44 | 1018.3 |
| 20260901173949 | 98 | 259 | 1.0 | 4.0 | 0.00 | 0.00 | 0.00 | 45 | 1018.2 |
| 20260901173446 | 99 | 250 | 1.0 | 6.0 | 0.00 | 0.00 | 0.00 | 42 | 1018.2 |
| 20260901172446 | 99 | 53 | 2.0 | 6.0 | 0.00 | 0.00 | 0.00 | 45 | 1018.3 |
| 20260901171949 | 99 | 95 | 2.0 | 6.0 | 0.00 | 0.00 | 0.00 | 46 | 1018.3 |
| 20260901171904 | 98 | 225 | 2.0 | 9.0 | 0.00 | 0.00 | 0.00 | 46 | 1018.4 |
| 20260901170854 | 98 | 145 | 3.0 | 9.0 | 0.00 | 0.00 | 0.00 | 45 | 1018.5 |
| 20260901170326 | 98 | 193 | 3.0 | 9.0 | 0.00 | 0.00 | 0.00 | 45 | 1018.5 |
| 20260901170313 | 100 | 214 | 1.0 | 9.0 | 0.00 | 0.00 | 0.00 | 43 | 1018.5 |
| 20260901165324 | 100 | 119 | 1.0 | 6.0 | 0.00 | 0.00 | 0.00 | 45 | 1018.6 |
| 20260901164821 | 99 | 200 | 2.0 | 11.0 | 0.00 | 0.00 | 0.00 | 47 | 1018.7 |
| 20260901164313 | 99 | 143 | 2.0 | 11.0 | 0.00 | 0.00 | 0.00 | 45 | 1018.8 |
| 20260901163745 | 100 | 208 | 1.0 | 4.0 | 0.00 | 0.00 | 0.00 | 44 | 1018.9 |
| 20260901163219 | 100 | 169 | 1.0 | 4.0 | 0.00 | 0.00 | 0.00 | 46 | 1019.0 |
| 20260901163141 | 100 | 169 | 1.0 | 5.0 | 0.00 | 0.00 | 0.00 | 44 | 1018.9 |
| 20260901162125 | 100 | 259 | 1.0 | 5.0 | 0.00 | 0.00 | 0.00 | 49 | 1018.9 |
| 20260901161622 | 99 | 132 | 1.0 | 4.0 | 0.00 | 0.00 | 0.00 | 45 | 1018.9 |
| 20260901161057 | 100 | 231 | 1.0 | 4.0 | 0.00 | 0.00 | 0.00 | 48 | 1018.9 |
| 20260901160531 | 99 | 214 | 1.0 | 7.0 | 0.00 | 0.00 | 0.00 | 48 | 1019.0 |
| 20260901160022 | 99 | 269 | 1.0 | 7.0 | 0.00 | 0.00 | 0.00 | 46 | 1019.0 |
| 20260901155520 | 99 | 245 | 1.0 | 6.0 | 0.00 | 0.00 | 0.00 | 46 | 1019.1 |
| 20260901155016 | 99 | 214 | 1.0 | 2.0 | 0.00 | 0.00 | 0.00 | 46 | 1019.1 |
| 20260901155000 | 99 | 199 | 1.0 | 3.0 | 0.00 | 0.00 | 0.00 | 47 | 1019.1 |
| 20260901154010 | 98 | 205 | 0.0 | 2.0 | 0.00 | 0.00 | 0.00 | 48 | 1019.2 |
| 20260901153956 | 98 | 197 | 1.0 | 4.0 | 0.00 | 0.00 | 0.00 | 51 | 1019.2 |
| 20260901152942 | 97 | 259 | 1.0 | 5.0 | 0.00 | 0.00 | 0.00 | 51 | 1019.2 |
| 20260901152438 | 96 | 143 | 1.0 | 7.0 | 0.00 | 0.00 | 0.00 | 52 | 1019.2 |
| 20260901151937 | 97 | 287 | 1.0 | 3.0 | 0.00 | 0.00 | 0.00 | 51 | 1019.2 |
| 20260901151428 | 96 | 177 | 1.0 | 2.0 | 0.00 | 0.00 | 0.00 | 52 | 1019.3 |
| 20260901150924 | 96 | 193 | 0.0 | 2.0 | 0.00 | 0.00 | 0.00 | 52 | 1019.3 |
| 20260901150425 | 95 | 150 | 1.0 | 4.0 | 0.00 | 0.00 | 0.00 | 53 | 1019.3 |
| 20260901150345 | 95 | 136 | 1.0 | 4.0 | 0.00 | 0.00 | 0.00 | 53 | 1019.2 |
| 20260901145328 | 94 | 193 | 1.0 | 3.0 | 0.00 | 0.00 | 0.00 | 54 | 1019.2 |
| 20260901145313 | 94 | 204 | 1.0 | 3.0 | 0.00 | 0.00 | 0.00 | 54 | 1019.3 |
| 20260901144323 | 94 | 193 | 1.0 | 3.0 | 0.00 | 0.00 | 0.00 | 53 | 1019.2 |
| 20260901144252 | 93 | 212 | 1.0 | 3.0 | 0.00 | 0.00 | 0.00 | 55 | 1019.2 |
| 20260901143229 | 93 | 206 | 1.0 | 3.0 | 0.00 | 0.00 | 0.00 | 56 | 1019.2 |
| 20260901142729 | 92 | 192 | 1.0 | 3.0 | 0.00 | 0.00 | 0.00 | 57 | 1019.2 |
| 20260901142224 | 92 | 147 | 1.0 | 3.0 | 0.00 | 0.00 | 0.00 | 58 | 1019.1 |
| 20260901141724 | 91 | 142 | 1.0 | 4.0 | 0.00 | 0.00 | 0.00 | 59 | 1019.2 |
| 20260901141151 | 90 | 156 | 1.0 | 4.0 | 0.00 | 0.00 | 0.00 | 59 | 1019.2 |
| 20260901141139 | 91 | 140 | 0.0 | 3.0 | 0.00 | 0.00 | 0.00 | 58 | 1019.2 |
| 20260901140607 | 90 | 188 | 0.0 | 3.0 | 0.00 | 0.00 | 0.00 | 60 | 1019.2 |
| 20260901140033 | 89 | 143 | 0.0 | 2.0 | 0.00 | 0.00 | 0.00 | 62 | 1019.2 |
| 20260901135023 | 88 | 145 | 0.0 | 2.0 | 0.00 | 0.00 | 0.00 | 62 | 1019.2 |
| 20260901134520 | 88 | 142 | 0.0 | 2.0 | 0.00 | 0.00 | 0.00 | 63 | 1019.2 |
| 20260901134453 | 87 | 157 | 0.0 | 2.0 | 0.00 | 0.00 | 0.00 | 63 | 1019.2 |
| 20260901133439 | 87 | 173 | 0.0 | 2.0 | 0.00 | 0.00 | 0.00 | 63 | 1019.2 |
| 20260901132913 | 87 | 145 | 0.0 | 2.0 | 0.00 | 0.00 | 0.00 | 63 | 1019.2 |
| 20260901132345 | 86 | 145 | 0.0 | 2.0 | 0.00 | 0.00 | 0.00 | 64 | 1019.1 |
| 20260901131813 | 86 | 155 | 0.0 | 1.0 | 0.00 | 0.00 | 0.00 | 64 | 1019.1 |
| 20260901131248 | 86 | 150 | 0.0 | 0.0 | 0.00 | 0.00 | 0.00 | 65 | 1019.0 |
| 20260901131227 | 85 | 150 | 0.0 | 0.0 | 0.00 | 0.00 | 0.00 | 67 | 1019.0 |
| 20260901130247 | 84 | 150 | 0.0 | 0.0 | 0.00 | 0.00 | 0.00 | 68 | 1018.9 |
| 20260901125719 | 83 | 147 | 0.0 | 0.0 | 0.00 | 0.00 | 0.00 | 70 | 1018.9 |
| 20260901125150 | 82 | 147 | 0.0 | 0.0 | 0.00 | 0.00 | 0.00 | 71 | 1018.9 |
| 20260901124646 | 81 | 147 | 0.0 | 0.0 | 0.00 | 0.00 | 0.00 | 74 | 1018.8 |
| 20260901124144 | 80 | 147 | 0.0 | 0.0 | 0.00 | 0.00 | 0.00 | 75 | 1018.7 |
| 20260901123617 | 78 | 147 | 0.0 | 0.0 | 0.00 | 0.00 | 0.00 | 77 | 1018.6 |
| 20260901123051 | 77 | 147 | 0.0 | 0.0 | 0.00 | 0.00 | 0.00 | 79 | 1018.5 |
| 20260901123004 | 76 | 147 | 0.0 | 0.0 | 0.00 | 0.00 | 0.00 | 79 | 1018.4 |
| 20260901122508 | 75 | 147 | 0.0 | 0.0 | 0.00 | 0.00 | 0.00 | 80 | 1018.4 |
| 20260901121452 | 74 | 147 | 0.0 | 0.0 | 0.00 | 0.00 | 0.00 | 80 | 1018.4 |
| 20260901120948 | 74 | 147 | 0.0 | 0.0 | 0.00 | 0.00 | 0.00 | 80 | 1018.2 |
| 20260901120920 | 74 | 147 | 0.0 | 0.0 | 0.00 | 0.00 | 0.00 | 79 | 1018.2 |
| 20260901115918 | 74 | 147 | 0.0 | 0.0 | 0.00 | 0.00 | 0.00 | 80 | 1018.2 |
| 20260901115902 | 73 | 147 | 0.0 | 0.0 | 0.00 | 0.00 | 0.00 | 80 | 1018.1 |
| 20260901114857 | 73 | 147 | 0.0 | 0.0 | 0.00 | 0.00 | 0.00 | 80 | 1018.0 |